Weather History for Hat Yai, Thailand

Change the Weather History Date:

Wednesday, November 27, 2013

  Actual Average Record
Temperature  
Mean Temperature 81 °F -  
Max Temperature 86 °F 83 °F 91 °F (1997)
Min Temperature 76 °F 73 °F 73 °F (1996)
Cooling Degree Days 16    
Growing Degree Days 31 (Base 50)    
Moisture  
Dew Point 75 °F    
Average Humidity 84    
Maximum Humidity 94    
Minimum Humidity 60    
Precipitation  
Precipitation 0.43 in - - ()
Sea Level Pressure  
Sea Level Pressure 29.83 in    
Wind  
Wind Speed 3 mph ()    
Max Wind Speed 10 mph    
Max Gust Speed -    
Visibility 5.8 miles    
Events Rain    
Averages and records for this station are not official NWS values.
T = Trace of Precipitation, MM = Missing Value Source: Averaged Metar Reports

Daily Weather History Graph

Daily Weather History Graph

Search for Another Location

Airport:

Trip Planner

Search our weather history database for the weather conditions in past years. The results will help you decide how hot, cold, wet, or windy it might be!

Date:

Astronomy

Nov. 27, 2013 Rise Set
Actual Time 6:13 AM ICT 5:58 PM ICT
Civil Twilight 5:50 AM ICT 6:21 PM ICT
Nautical Twilight 5:25 AM ICT 6:47 PM ICT
Astronomical Twilight 4:59 AM ICT 7:12 PM ICT
Moon 12:53 AM ICT (11/27) 1:16 PM ICT (11/27)
Length of Visible Light 12h 30m
Length of Day
11h 45m
Last Quarter, 36% of the Moon is Illuminated
Nov 27
Last Quarter
Dec 3
New
Dec 9
First Quarter
Dec 17
Full
Dec 25
Last Quarter

Hourly Weather History & Observations

Time (ICT) Temp. Heat Index Dew Point Humidity Pressure Visibility Wind Dir Wind Speed Gust Speed Precip Events Conditions
12:00 AM 78.8 °F - 75.2 °F 89% 29.83 in 6.2 mi North 5.8 mph - N/A   Scattered Clouds
12:30 AM 78.8 °F - 75.2 °F 89% 29.83 in 6.2 mi North 3.5 mph - N/A   Mostly Cloudy
1:00 AM 79 °F - 75 °F 85% 29.82 in 6 mi NNW 4.6 mph - -   Scattered Clouds
1:00 AM 78.8 °F - 75.2 °F 89% 29.80 in 6.2 mi NNW 4.6 mph - N/A   Mostly Cloudy
1:30 AM 78.8 °F - 75.2 °F 89% 29.80 in 6.2 mi NNW 4.6 mph - N/A   Mostly Cloudy
2:00 AM 78.8 °F - 75.2 °F 89% 29.80 in - North - - N/A   Mostly Cloudy
2:30 AM 78.8 °F - 75.2 °F 89% 29.80 in 5.6 mi NW 3.5 mph - N/A   Mostly Cloudy
3:00 AM 78.8 °F - 75.2 °F 89% 29.80 in 5.6 mi Calm Calm - N/A   Mostly Cloudy
3:30 AM 78.8 °F - 75.2 °F 89% 29.80 in 5.0 mi East 3.5 mph - N/A   Mostly Cloudy
4:00 AM 77 °F - 75 °F 92% 29.78 in 4 mi East 2.3 mph - -   Mist
4:00 AM 77.0 °F - 75.2 °F 94% 29.77 in 4.3 mi East 2.3 mph - N/A   Mostly Cloudy
4:30 AM 77.0 °F - 75.2 °F 94% 29.77 in 4.3 mi Calm Calm - N/A   Mostly Cloudy
5:00 AM 77.0 °F - 75.2 °F 94% 29.80 in 5.0 mi WSW 3.5 mph - N/A   Mostly Cloudy
5:30 AM 77.0 °F - 75.2 °F 94% 29.80 in 5.0 mi Calm Calm - N/A   Mostly Cloudy
6:00 AM 77.0 °F - 75.2 °F 94% 29.80 in 6.2 mi Calm Calm - N/A   Mostly Cloudy
6:30 AM 77.0 °F - 75.2 °F 94% 29.83 in 6.2 mi SW 2.3 mph - N/A   Mostly Cloudy
7:00 AM 77 °F - 75 °F 92% 29.84 in 6 mi West 2.3 mph - -   Scattered Clouds
7:00 AM 77.0 °F - 75.2 °F 94% 29.83 in 6.2 mi West 2.3 mph - N/A   Mostly Cloudy
7:30 AM 78.8 °F - 75.2 °F 89% 29.86 in 6.2 mi Calm Calm - N/A   Mostly Cloudy
8:00 AM 80.6 °F 86.2 °F 75.2 °F 84% 29.86 in 6.2 mi Calm Calm - N/A   Mostly Cloudy
8:30 AM 84.2 °F 92.3 °F 75.2 °F 74% 29.86 in 6.2 mi Calm Calm - N/A   Mostly Cloudy
9:00 AM 84.2 °F 90.9 °F 73.4 °F 70% 29.89 in 6.2 mi Calm Calm - N/A   Mostly Cloudy
9:30 AM 84.2 °F 90.9 °F 73.4 °F 70% 29.86 in 6.2 mi East 2.3 mph - N/A   Mostly Cloudy
10:00 AM 85 °F - 73 °F 60% 29.88 in 6 mi Calm Calm - -   Scattered Clouds
10:00 AM 84.2 °F 90.9 °F 73.4 °F 70% 29.89 in 6.2 mi Calm Calm - N/A   Mostly Cloudy
10:30 AM 86.0 °F 93.4 °F 73.4 °F 66% 29.86 in 6.2 mi West 3.5 mph - N/A   Overcast
11:00 AM 84.2 °F 90.9 °F 73.4 °F 70% 29.86 in 6.2 mi ENE 3.5 mph - N/A   Overcast
11:30 AM 86.0 °F 93.4 °F 73.4 °F 66% 29.83 in 6.2 mi ENE 3.5 mph - N/A   Overcast
12:00 PM 86.0 °F 93.4 °F 73.4 °F 66% 29.83 in 6.2 mi ESE 3.5 mph - N/A   Overcast
12:30 PM 86.0 °F 93.4 °F 73.4 °F 66% 29.80 in 6.2 mi WNW 2.3 mph - N/A   Overcast
1:00 PM 86 °F - 74 °F 60% 29.81 in 6 mi NNW 3.5 mph - -   Overcast
1:00 PM 86.0 °F 95.1 °F 75.2 °F 70% 29.80 in 6.2 mi ENE 2.3 mph - N/A   Overcast
1:30 PM 80.6 °F 85.4 °F 73.4 °F 79% 29.80 in 5.0 mi North 3.5 mph - N/A Rain Light Rain
2:00 PM 80.6 °F 87.1 °F 77.0 °F 89% 29.80 in 6.2 mi ESE 2.3 mph - N/A   Mostly Cloudy
2:30 PM 80.6 °F 86.2 °F 75.2 °F 84% 29.77 in 5.6 mi West 4.6 mph - N/A Rain Light Rain
3:00 PM 80.6 °F 86.2 °F 75.2 °F 84% 29.77 in 6.2 mi NE 4.6 mph - N/A Rain Light Rain
3:30 PM 80.6 °F 86.2 °F 75.2 °F 84% 29.77 in 6.2 mi NE 2.3 mph - N/A   Mostly Cloudy
4:00 PM 81 °F - 75 °F 78% 29.77 in 6 mi Calm Calm - - Rain Light Rain
4:00 PM 80.6 °F 87.1 °F 77.0 °F 89% 29.77 in 6.2 mi Calm Calm - N/A   Mostly Cloudy
4:30 PM 80.6 °F 86.2 °F 75.2 °F 84% 29.77 in 6.2 mi East 2.3 mph - N/A   Mostly Cloudy
5:00 PM 80.6 °F 86.2 °F 75.2 °F 84% 29.80 in 6.2 mi NE 2.3 mph - N/A   Mostly Cloudy
5:30 PM 80.6 °F 87.1 °F 77.0 °F 89% 29.80 in 6.2 mi East 2.3 mph - N/A   Mostly Cloudy
6:00 PM 80.6 °F 87.1 °F 77.0 °F 89% 29.83 in 6.2 mi East 3.5 mph - N/A   Mostly Cloudy
6:30 PM 80.6 °F 87.1 °F 77.0 °F 89% 29.83 in 6.2 mi ENE 2.3 mph - N/A   Mostly Cloudy
7:00 PM 80 °F - 76 °F 84% 29.84 in 6 mi NE 3.5 mph - -   Partly Cloudy
7:00 PM 80.6 °F 87.1 °F 77.0 °F 89% 29.83 in 6.2 mi NE 3.5 mph - N/A   Mostly Cloudy
7:30 PM 80.6 °F 87.1 °F 77.0 °F 89% 29.86 in 6.2 mi East 10.4 mph - N/A   Mostly Cloudy
8:30 PM 77.0 °F - 73.4 °F 89% 29.86 in 6.2 mi West 2.3 mph - N/A   Mostly Cloudy
9:00 PM 77.0 °F - 73.4 °F 89% 29.89 in 4.3 mi NNW 3.5 mph - N/A Rain Light Rain
9:30 PM 77.0 °F - 73.4 °F 89% 29.89 in 5.0 mi Calm Calm - N/A   Mostly Cloudy
10:00 PM 76 °F - 74 °F 93% 29.91 in 6 mi WNW 2.3 mph - - Rain Light Rain
10:00 PM 77.0 °F - 73.4 °F 89% 29.92 in 5.6 mi WNW 2.3 mph - N/A Rain Light Rain
10:30 PM 77.0 °F - 75.2 °F 94% 29.92 in 5.6 mi WSW 3.5 mph - N/A Rain Light Rain
11:00 PM 77.0 °F - 75.2 °F 94% 29.89 in 5.6 mi West 3.5 mph - N/A Rain Light Rain
11:30 PM 77.0 °F - 75.2 °F 94% 29.89 in 5.6 mi NNW 4.6 mph - N/A Rain Light Rain